CCA1025 ZJHK-ZPPP

Flight info

Callsign CCA1025
Flight time 2h 22m
Altitude 33100
Route AGTEL W71 LH R339 BSE A599 LXI
Aircraft A339/H-VGDW/C

Departure

Time 2026-04-22 07:24
Airport Haikou Meilan International Airport (ZJHK)

Arrival

Time 2026-04-22 09:46
Airport Kunming Changshui International Airport (ZPPP)
Time Latitude Longitude Altitude Speed Heading
2026-04-22 07:12 19.93863 110.46203 86 ft 0 kts 360°
2026-04-22 07:12 19.93851 110.46203 86 ft 2 kts 360°
2026-04-22 07:13 19.93836 110.46203 85 ft 2 kts 360°
2026-04-22 07:13 19.93821 110.46203 85 ft 2 kts 360°
2026-04-22 07:13 19.93807 110.46203 85 ft 2 kts 360°
2026-04-22 07:13 19.93791 110.46203 85 ft 2 kts 360°
2026-04-22 07:14 19.93776 110.46203 84 ft 2 kts 360°
2026-04-22 07:14 19.93761 110.46202 84 ft 2 kts 12°
2026-04-22 07:14 19.93748 110.46196 84 ft 2 kts 41°
2026-04-22 07:14 19.93738 110.46184 84 ft 2 kts 65°
2026-04-22 07:15 19.93734 110.46170 84 ft 0 kts 88°
2026-04-22 07:15 19.93734 110.46164 84 ft 0 kts 90°
2026-04-22 07:17 19.93734 110.46165 84 ft 0 kts 90°
2026-04-22 07:17 19.93735 110.46182 84 ft 3 kts 87°
2026-04-22 07:17 19.93736 110.46221 84 ft 6 kts 88°
2026-04-22 07:17 19.93729 110.46274 84 ft 7 kts 132°
2026-04-22 07:18 19.93673 110.46284 84 ft 7 kts 216°
2026-04-22 07:18 19.93663 110.46210 83 ft 12 kts 269°
2026-04-22 07:18 19.93662 110.46112 83 ft 14 kts 269°
2026-04-22 07:18 19.93661 110.45998 84 ft 16 kts 270°
2026-04-22 07:19 19.93661 110.45873 83 ft 18 kts 270°
2026-04-22 07:19 19.93660 110.45733 83 ft 19 kts 269°
2026-04-22 07:19 19.93657 110.45578 78 ft 22 kts 268°
2026-04-22 07:19 19.93658 110.45416 78 ft 21 kts 271°
2026-04-22 07:20 19.93659 110.45260 79 ft 20 kts 269°
2026-04-22 07:20 19.93657 110.45110 80 ft 20 kts 268°
2026-04-22 07:20 19.93654 110.44966 81 ft 19 kts 272°
2026-04-22 07:20 19.93658 110.44832 83 ft 18 kts 270°
2026-04-22 07:21 19.93658 110.44714 84 ft 17 kts 269°
2026-04-22 07:21 19.93656 110.44591 86 ft 16 kts 269°
2026-04-22 07:21 19.93655 110.44473 87 ft 15 kts 269°
2026-04-22 07:21 19.93657 110.44354 87 ft 16 kts 271°
2026-04-22 07:22 19.93656 110.44233 86 ft 11 kts 269°
2026-04-22 07:22 19.93613 110.44182 86 ft 10 kts 184°
2026-04-22 07:22 19.93538 110.44186 87 ft 10 kts 178°
2026-04-22 07:22 19.93480 110.44209 87 ft 7 kts 131°
2026-04-22 07:23 19.93476 110.44248 87 ft 6 kts 88°
2026-04-22 07:23 19.93475 110.44508 87 ft 75 kts 90°
2026-04-22 07:23 19.93459 110.45345 78 ft 147 kts 86°
2026-04-22 07:23 19.93516 110.46585 347 ft 182 kts 88°
2026-04-22 07:24 19.93576 110.47956 1031 ft 191 kts 84°
2026-04-22 07:24 19.93705 110.49361 1842 ft 195 kts 87°
2026-04-22 07:24 19.93775 110.50822 2305 ft 204 kts 94°
2026-04-22 07:24 19.93686 110.52374 2589 ft 220 kts 96°
2026-04-22 07:25 19.93586 110.54060 2895 ft 237 kts 94°
2026-04-22 07:25 19.93529 110.55872 3309 ft 249 kts 92°
2026-04-22 07:25 19.93732 110.57712 3846 ft 256 kts 66°
2026-04-22 07:25 19.94830 110.59175 4392 ft 259 kts 32°
2026-04-22 07:26 19.96497 110.59817 4936 ft 259 kts
2026-04-22 07:26 19.98312 110.59809 5598 ft 261 kts 357°
2026-04-22 07:26 20.00135 110.59761 6245 ft 264 kts 357°
2026-04-22 07:26 20.02005 110.59728 6812 ft 266 kts 358°
2026-04-22 07:27 20.03893 110.59710 7464 ft 267 kts 358°
2026-04-22 07:27 20.05746 110.59701 8129 ft 269 kts 358°
2026-04-22 07:27 20.07619 110.59693 8796 ft 271 kts 358°
2026-04-22 07:27 20.09515 110.59647 9435 ft 272 kts 353°
2026-04-22 07:28 20.13319 110.58942 10360 ft 290 kts 345°
2026-04-22 07:28 20.15361 110.58418 10677 ft 307 kts 344°
2026-04-22 07:28 20.17410 110.57605 10942 ft 321 kts 325°
2026-04-22 07:29 20.19034 110.55970 11181 ft 333 kts 302°
2026-04-22 07:29 20.20004 110.53701 11445 ft 345 kts 287°
2026-04-22 07:29 20.20789 110.51252 11949 ft 355 kts 288°
2026-04-22 07:29 20.21619 110.48766 12609 ft 358 kts 289°
2026-04-22 07:30 20.22463 110.46268 13290 ft 360 kts 289°
2026-04-22 07:30 20.23310 110.43767 13914 ft 363 kts 289°
2026-04-22 07:30 20.24178 110.41226 14469 ft 367 kts 291°
2026-04-22 07:30 20.25461 110.38906 14950 ft 374 kts 310°
2026-04-22 07:31 20.27524 110.37154 15523 ft 379 kts 329°
2026-04-22 07:31 20.29990 110.36157 16070 ft 383 kts 341°
2026-04-22 07:31 20.32558 110.35304 16587 ft 386 kts 340°
2026-04-22 07:31 20.35132 110.34434 17077 ft 390 kts 340°
2026-04-22 07:32 20.37722 110.33549 17596 ft 392 kts 340°
2026-04-22 07:32 20.40319 110.32658 18114 ft 395 kts 340°
2026-04-22 07:32 20.42951 110.31754 18643 ft 397 kts 340°
2026-04-22 07:32 20.45574 110.30853 19151 ft 399 kts 340°
2026-04-22 07:33 20.48248 110.29934 19688 ft 401 kts 340°
2026-04-22 07:33 20.50911 110.29015 20212 ft 403 kts 340°
2026-04-22 07:33 20.53547 110.28087 20709 ft 404 kts 339°
2026-04-22 07:33 20.56261 110.27125 21192 ft 407 kts 339°
2026-04-22 07:34 20.58930 110.26179 21670 ft 409 kts 339°
2026-04-22 07:34 20.61638 110.25223 22152 ft 411 kts 339°
2026-04-22 07:34 20.64362 110.24262 22612 ft 413 kts 339°
2026-04-22 07:34 20.67102 110.23297 23043 ft 415 kts 339°
2026-04-22 07:35 20.69887 110.22320 23498 ft 417 kts 339°
2026-04-22 07:35 20.72622 110.21365 23940 ft 419 kts 339°
2026-04-22 07:35 20.75427 110.20388 24361 ft 421 kts 339°
2026-04-22 07:35 20.78224 110.19414 24757 ft 424 kts 339°
2026-04-22 07:36 20.81056 110.18431 25157 ft 426 kts 339°
2026-04-22 07:36 20.83860 110.17464 25542 ft 429 kts 339°
2026-04-22 07:36 20.86737 110.16477 25931 ft 431 kts 339°
2026-04-22 07:36 20.89566 110.15516 26317 ft 433 kts 339°
2026-04-22 07:37 20.92459 110.14536 26680 ft 435 kts 339°
2026-04-22 07:37 20.95353 110.13557 27032 ft 437 kts 339°
2026-04-22 07:37 20.98282 110.12561 27399 ft 439 kts 339°
2026-04-22 07:37 21.01199 110.11574 27768 ft 441 kts 339°
2026-04-22 07:38 21.04118 110.10588 28127 ft 442 kts 339°
2026-04-22 07:38 21.07063 110.09604 28490 ft 444 kts 339°
2026-04-22 07:38 21.10036 110.08613 28827 ft 446 kts 339°
2026-04-22 07:38 21.13009 110.07622 29157 ft 448 kts 339°
2026-04-22 07:39 21.16021 110.06619 29494 ft 450 kts 339°
2026-04-22 07:39 21.19018 110.05624 29828 ft 452 kts 339°
2026-04-22 07:39 21.22025 110.04627 30205 ft 453 kts 339°
2026-04-22 07:39 21.25038 110.03635 30679 ft 451 kts 339°
2026-04-22 07:40 21.28061 110.02641 31168 ft 449 kts 339°
2026-04-22 07:40 21.31100 110.01646 31603 ft 449 kts 339°
2026-04-22 07:40 21.33944 110.00716 31953 ft 449 kts 339°
2026-04-22 07:40 21.36944 109.99736 32290 ft 451 kts 339°
2026-04-22 07:41 21.39976 109.98749 32619 ft 452 kts 339°
2026-04-22 07:41 21.42975 109.97774 32832 ft 454 kts 339°
2026-04-22 07:41 21.49042 109.95800 32838 ft 454 kts 339°
2026-04-22 07:42 21.55089 109.93842 32843 ft 454 kts 339°
2026-04-22 07:42 21.61136 109.91885 32850 ft 453 kts 339°
2026-04-22 07:43 21.67222 109.89915 32853 ft 453 kts 339°
2026-04-22 07:43 21.73251 109.87968 32848 ft 452 kts 339°
2026-04-22 07:44 21.79313 109.86016 32848 ft 453 kts 339°
2026-04-22 07:44 21.85345 109.84079 32858 ft 453 kts 339°
2026-04-22 07:45 21.91419 109.82141 32862 ft 453 kts 339°
2026-04-22 07:45 21.97449 109.80224 32870 ft 452 kts 339°
2026-04-22 07:46 22.03493 109.78309 32876 ft 452 kts 339°
2026-04-22 07:46 22.09528 109.76409 32882 ft 451 kts 339°
2026-04-22 07:47 22.15564 109.74521 32891 ft 452 kts 339°
2026-04-22 07:47 22.21609 109.72641 32893 ft 451 kts 339°
2026-04-22 07:48 22.27674 109.70766 32895 ft 452 kts 339°
2026-04-22 07:48 22.33748 109.68896 32894 ft 451 kts 339°
2026-04-22 07:49 22.39835 109.67029 32900 ft 451 kts 339°
2026-04-22 07:49 22.45879 109.65179 32899 ft 450 kts 339°
2026-04-22 07:50 22.51922 109.63337 32905 ft 450 kts 339°
2026-04-22 07:50 22.57992 109.61493 32899 ft 450 kts 339°
2026-04-22 07:51 22.64030 109.59677 32892 ft 450 kts 339°
2026-04-22 07:51 22.70061 109.57857 32889 ft 451 kts 339°
2026-04-22 07:52 22.76115 109.56041 32879 ft 450 kts 339°
2026-04-22 07:52 22.82193 109.54227 32875 ft 450 kts 339°
2026-04-22 07:53 22.88237 109.52420 32864 ft 450 kts 339°
2026-04-22 07:53 22.94267 109.50629 32857 ft 449 kts 339°
2026-04-22 07:54 23.00324 109.48840 32856 ft 449 kts 339°
2026-04-22 07:54 23.06369 109.47060 32857 ft 450 kts 339°
2026-04-22 07:55 23.12421 109.45293 32879 ft 450 kts 339°
2026-04-22 07:55 23.18509 109.43524 32890 ft 451 kts 339°
2026-04-22 07:56 23.21578 109.42633 33069 ft 454 kts 339°
2026-04-22 07:56 23.24691 109.41728 33568 ft 452 kts 339°
2026-04-22 07:56 23.27720 109.40850 34142 ft 448 kts 339°
2026-04-22 07:56 23.30725 109.39983 34630 ft 446 kts 339°
2026-04-22 07:57 23.33742 109.39113 34895 ft 447 kts 339°
2026-04-22 07:57 23.36766 109.38238 34892 ft 446 kts 339°
2026-04-22 07:57 23.42835 109.36494 34899 ft 447 kts 340°
2026-04-22 07:58 23.48849 109.34766 34896 ft 446 kts 339°
2026-04-22 07:58 23.54873 109.33041 34893 ft 446 kts 339°
2026-04-22 07:59 23.60883 109.31339 34901 ft 446 kts 339°
2026-04-22 07:59 23.66933 109.29624 34901 ft 446 kts 339°
2026-04-22 08:00 23.72995 109.27907 34911 ft 445 kts 339°
2026-04-22 08:00 23.79023 109.26208 34906 ft 446 kts 339°
2026-04-22 08:01 23.85066 109.24513 34912 ft 446 kts 339°
2026-04-22 08:01 23.91097 109.22839 34920 ft 447 kts 339°
2026-04-22 08:02 23.97186 109.21146 34923 ft 447 kts 339°
2026-04-22 08:02 24.03223 109.19469 34929 ft 446 kts 339°
2026-04-22 08:03 24.09300 109.17780 34936 ft 446 kts 339°
2026-04-22 08:03 24.15357 109.16099 34942 ft 447 kts 339°
2026-04-22 08:04 24.21420 109.14425 34946 ft 447 kts 339°
2026-04-22 08:04 24.27522 109.12753 34957 ft 447 kts 339°
2026-04-22 08:05 24.33576 109.11100 34952 ft 447 kts 339°
2026-04-22 08:05 24.39644 109.09450 34942 ft 448 kts 339°
2026-04-22 08:06 24.45761 109.07793 34935 ft 447 kts 339°
2026-04-22 08:06 24.51842 109.06160 34934 ft 448 kts 339°
2026-04-22 08:07 24.57962 109.04524 34944 ft 449 kts 339°
2026-04-22 08:07 24.64059 109.02896 34954 ft 449 kts 339°
2026-04-22 08:08 24.70197 109.01263 34954 ft 450 kts 339°
2026-04-22 08:08 24.76332 108.99636 34958 ft 449 kts 339°
2026-04-22 08:09 24.82441 108.98013 34965 ft 449 kts 339°
2026-04-22 08:09 24.88555 108.96395 34968 ft 450 kts 339°
2026-04-22 08:10 24.94673 108.94790 34968 ft 450 kts 339°
2026-04-22 08:10 25.00799 108.93193 34982 ft 450 kts 339°
2026-04-22 08:11 25.06890 108.91616 34988 ft 450 kts 339°
2026-04-22 08:11 25.13016 108.90048 34994 ft 450 kts 339°
2026-04-22 08:12 25.19167 108.88483 34996 ft 450 kts 339°
2026-04-22 08:12 25.25304 108.86927 35003 ft 450 kts 339°
2026-04-22 08:13 25.31416 108.85390 35003 ft 450 kts 339°
2026-04-22 08:13 25.37530 108.83862 35017 ft 448 kts 339°
2026-04-22 08:14 25.43661 108.82342 35023 ft 448 kts 339°
2026-04-22 08:14 25.49777 108.80839 35034 ft 448 kts 339°
2026-04-22 08:15 25.55908 108.79333 35035 ft 447 kts 339°
2026-04-22 08:15 25.61981 108.77851 35030 ft 447 kts 339°
2026-04-22 08:16 25.68100 108.76379 35029 ft 446 kts 339°
2026-04-22 08:16 25.74181 108.74927 35025 ft 447 kts 339°
2026-04-22 08:17 25.80317 108.73476 35029 ft 448 kts 339°
2026-04-22 08:17 25.86456 108.72032 35029 ft 445 kts 339°
2026-04-22 08:18 25.92546 108.70606 35036 ft 446 kts 339°
2026-04-22 08:18 25.98630 108.69201 35041 ft 446 kts 339°
2026-04-22 08:19 26.04745 108.67813 35045 ft 446 kts 339°
2026-04-22 08:19 26.10826 108.66438 35047 ft 446 kts 339°
2026-04-22 08:20 26.16913 108.65068 35047 ft 445 kts 339°
2026-04-22 08:20 26.23214 108.64339 35046 ft 465 kts 353°
2026-04-22 08:21 26.26512 108.64817 35050 ft 478 kts
2026-04-22 08:21 26.29768 108.65874 35051 ft 493 kts 12°
2026-04-22 08:21 26.32942 108.67549 35052 ft 505 kts 21°
2026-04-22 08:21 26.35847 108.69782 35060 ft 516 kts 30°
2026-04-22 08:22 26.38779 108.72131 35036 ft 502 kts 18°
2026-04-22 08:22 26.41991 108.73440 35053 ft 478 kts
2026-04-22 08:22 26.45237 108.73930 35057 ft 465 kts 352°
2026-04-22 08:22 26.48399 108.73875 35058 ft 453 kts 345°
2026-04-22 08:23 26.54461 108.72381 35053 ft 433 kts 330°
2026-04-22 08:23 26.59669 108.69314 35050 ft 415 kts 316°
2026-04-22 08:24 26.63821 108.64989 35051 ft 401 kts 303°
2026-04-22 08:24 26.66745 108.59761 35052 ft 391 kts 290°
2026-04-22 08:25 26.68359 108.54011 35052 ft 388 kts 278°
2026-04-22 08:25 26.68636 108.48006 35050 ft 387 kts 267°
2026-04-22 08:26 26.67566 108.42134 35051 ft 392 kts 255°
2026-04-22 08:26 26.65140 108.36597 35051 ft 401 kts 243°
2026-04-22 08:27 26.61430 108.31843 35050 ft 416 kts 229°
2026-04-22 08:27 26.56557 108.28104 35063 ft 428 kts 220°
2026-04-22 08:28 26.51369 108.24693 35089 ft 428 kts 219°
2026-04-22 08:28 26.46176 108.21322 35100 ft 429 kts 219°
2026-04-22 08:29 26.40989 108.17963 35093 ft 429 kts 219°
2026-04-22 08:29 26.35809 108.14618 35082 ft 429 kts 219°
2026-04-22 08:30 26.30600 108.11256 35068 ft 428 kts 219°
2026-04-22 08:30 26.25399 108.07908 35059 ft 429 kts 219°
2026-04-22 08:31 26.20196 108.04557 35041 ft 429 kts 219°
2026-04-22 08:32 26.12368 107.99528 35028 ft 430 kts 219°
2026-04-22 08:32 26.07163 107.96187 35025 ft 429 kts 219°
2026-04-22 08:33 26.01958 107.92851 35019 ft 430 kts 219°
2026-04-22 08:33 25.96722 107.89497 35015 ft 431 kts 219°
2026-04-22 08:34 25.91523 107.86169 35013 ft 431 kts 219°
2026-04-22 08:34 25.86295 107.82828 35019 ft 432 kts 219°
2026-04-22 08:35 25.81078 107.79495 35020 ft 432 kts 219°
2026-04-22 08:35 25.75842 107.76157 35030 ft 431 kts 219°
2026-04-22 08:36 25.70603 107.72819 35029 ft 432 kts 219°
2026-04-22 08:36 25.65338 107.69466 35028 ft 433 kts 219°
2026-04-22 08:37 25.60052 107.66105 35022 ft 433 kts 219°
2026-04-22 08:37 25.54816 107.62779 35025 ft 433 kts 219°
2026-04-22 08:38 25.49513 107.59413 35026 ft 435 kts 219°
2026-04-22 08:38 25.44212 107.56052 35021 ft 435 kts 219°
2026-04-22 08:39 25.38928 107.52708 35021 ft 436 kts 218°
2026-04-22 08:39 25.33593 107.49331 35019 ft 436 kts 219°
2026-04-22 08:40 25.28307 107.45991 35023 ft 435 kts 219°
2026-04-22 08:40 25.22999 107.42640 35017 ft 436 kts 219°
2026-04-22 08:41 25.17707 107.39302 35015 ft 436 kts 219°
2026-04-22 08:41 25.12390 107.35952 35014 ft 437 kts 219°
2026-04-22 08:42 25.07098 107.32622 35014 ft 439 kts 218°
2026-04-22 08:42 25.01784 107.29280 35010 ft 439 kts 218°
2026-04-22 08:43 24.96415 107.25905 35001 ft 440 kts 218°
2026-04-22 08:43 24.91062 107.22546 34991 ft 440 kts 218°
2026-04-22 08:44 24.85722 107.19198 34985 ft 439 kts 218°
2026-04-22 08:44 24.80348 107.15834 34986 ft 440 kts 218°
2026-04-22 08:45 24.74949 107.12454 34979 ft 441 kts 218°
2026-04-22 08:45 24.69568 107.09091 34981 ft 442 kts 218°
2026-04-22 08:46 24.64156 107.05714 34985 ft 441 kts 218°
2026-04-22 08:46 24.58817 107.02383 34983 ft 440 kts 218°
2026-04-22 08:47 24.53437 106.99029 34982 ft 441 kts 218°
2026-04-22 08:47 24.48075 106.95691 34973 ft 442 kts 218°
2026-04-22 08:48 24.42654 106.92316 34967 ft 443 kts 218°
2026-04-22 08:48 24.37234 106.88952 34964 ft 444 kts 217°
2026-04-22 08:49 24.31824 106.85592 34964 ft 443 kts 217°
2026-04-22 08:49 24.26392 106.82224 34956 ft 445 kts 217°
2026-04-22 08:50 24.20934 106.78841 34957 ft 444 kts 217°
2026-04-22 08:50 24.15520 106.75490 34943 ft 445 kts 217°
2026-04-22 08:51 24.10069 106.72118 34937 ft 446 kts 217°
2026-04-22 08:51 24.04630 106.68755 34916 ft 448 kts 217°
2026-04-22 08:52 23.99502 106.64932 34899 ft 432 kts 233°
2026-04-22 08:52 23.96226 106.59584 34899 ft 418 kts 250°
2026-04-22 08:53 23.94723 106.53539 34894 ft 412 kts 266°
2026-04-22 08:53 23.95012 106.47308 34889 ft 411 kts 281°
2026-04-22 08:54 23.96209 106.41170 34893 ft 410 kts 282°
2026-04-22 08:54 23.97431 106.35051 34888 ft 411 kts 282°
2026-04-22 08:55 23.98662 106.28938 34886 ft 411 kts 282°
2026-04-22 08:55 23.99898 106.22784 34876 ft 411 kts 282°
2026-04-22 08:56 24.01122 106.16686 34867 ft 411 kts 282°
2026-04-22 08:56 24.02351 106.10554 34863 ft 412 kts 282°
2026-04-22 08:57 24.03576 106.04425 34862 ft 412 kts 282°
2026-04-22 08:57 24.04806 105.98264 34864 ft 412 kts 282°
2026-04-22 08:58 24.06027 105.92136 34890 ft 411 kts 282°
2026-04-22 08:58 24.07240 105.86037 34905 ft 410 kts 282°
2026-04-22 08:59 24.08456 105.79909 34934 ft 409 kts 282°
2026-04-22 08:59 24.09658 105.73834 34964 ft 406 kts 282°
2026-04-22 09:00 24.10962 105.67841 34977 ft 405 kts 284°
2026-04-22 09:00 24.12415 105.61889 34965 ft 404 kts 283°
2026-04-22 09:01 24.13864 105.55935 34962 ft 403 kts 283°
2026-04-22 09:01 24.15316 105.49969 34968 ft 403 kts 284°
2026-04-22 09:02 24.16758 105.44048 34982 ft 400 kts 283°
2026-04-22 09:02 24.18189 105.38147 34991 ft 401 kts 283°
2026-04-22 09:03 24.19621 105.32223 35005 ft 399 kts 283°
2026-04-22 09:03 24.21049 105.26327 35011 ft 398 kts 282°
2026-04-22 09:04 24.22460 105.20438 35016 ft 396 kts 282°
2026-04-22 09:04 24.23770 105.14563 35015 ft 395 kts 281°
2026-04-22 09:05 24.25071 105.08667 35021 ft 396 kts 282°
2026-04-22 09:05 24.26359 105.02839 35026 ft 395 kts 282°
2026-04-22 09:06 24.27651 104.96969 35032 ft 394 kts 282°
2026-04-22 09:06 24.28939 104.91117 35047 ft 393 kts 282°
2026-04-22 09:07 24.30231 104.85253 35058 ft 393 kts 281°
2026-04-22 09:07 24.31508 104.79442 35065 ft 394 kts 282°
2026-04-22 09:08 24.32793 104.73589 35071 ft 395 kts 281°
2026-04-22 09:08 24.34080 104.67702 35080 ft 395 kts 281°
2026-04-22 09:09 24.35368 104.61807 35078 ft 396 kts 282°
2026-04-22 09:09 24.36651 104.55930 35071 ft 396 kts 281°
2026-04-22 09:10 24.37932 104.50049 35077 ft 396 kts 281°
2026-04-22 09:10 24.39207 104.44161 35084 ft 396 kts 282°
2026-04-22 09:11 24.40482 104.38282 35094 ft 396 kts 282°
2026-04-22 09:11 24.41757 104.32377 35101 ft 395 kts 282°
2026-04-22 09:12 24.43029 104.26492 35104 ft 396 kts 281°
2026-04-22 09:12 24.44293 104.20618 35104 ft 396 kts 281°
2026-04-22 09:13 24.45527 104.14886 35121 ft 396 kts 281°
2026-04-22 09:13 24.46793 104.08976 35133 ft 397 kts 281°
2026-04-22 09:14 24.48066 104.03037 35150 ft 396 kts 282°
2026-04-22 09:14 24.49319 103.97170 35165 ft 395 kts 281°
2026-04-22 09:15 24.50568 103.91299 35173 ft 394 kts 282°
2026-04-22 09:15 24.51825 103.85407 35187 ft 394 kts 281°
2026-04-22 09:16 24.53056 103.79507 35192 ft 394 kts 279°
2026-04-22 09:16 24.53906 103.73576 35210 ft 395 kts 276°
2026-04-22 09:17 24.54275 103.67558 35219 ft 394 kts 272°
2026-04-22 09:17 24.54421 103.61539 35214 ft 394 kts 272°
2026-04-22 09:18 24.54556 103.55498 35124 ft 395 kts 271°
2026-04-22 09:18 24.54620 103.52509 34832 ft 393 kts 272°
2026-04-22 09:18 24.54680 103.49513 34545 ft 391 kts 271°
2026-04-22 09:18 24.54742 103.46526 34262 ft 389 kts 272°
2026-04-22 09:19 24.54801 103.43546 33979 ft 387 kts 272°
2026-04-22 09:19 24.54861 103.40577 33697 ft 387 kts 272°
2026-04-22 09:19 24.54919 103.37605 33415 ft 388 kts 272°
2026-04-22 09:19 24.54977 103.34664 33139 ft 389 kts 271°
2026-04-22 09:20 24.55033 103.31662 32860 ft 390 kts 271°
2026-04-22 09:20 24.55092 103.28669 32606 ft 391 kts 272°
2026-04-22 09:20 24.55250 103.25663 32356 ft 392 kts 275°
2026-04-22 09:20 24.55536 103.22691 32110 ft 394 kts 277°
2026-04-22 09:21 24.55950 103.19721 31860 ft 395 kts 279°
2026-04-22 09:21 24.56496 103.16744 31610 ft 397 kts 281°
2026-04-22 09:21 24.57177 103.13776 31361 ft 399 kts 283°
2026-04-22 09:21 24.57981 103.10864 31113 ft 401 kts 285°
2026-04-22 09:22 24.58925 103.07937 30861 ft 403 kts 287°
2026-04-22 09:22 24.59892 103.05044 30604 ft 405 kts 287°
2026-04-22 09:22 24.60865 103.02142 30245 ft 407 kts 287°
2026-04-22 09:22 24.61847 102.99230 29776 ft 406 kts 287°
2026-04-22 09:23 24.62827 102.96336 29404 ft 403 kts 287°
2026-04-22 09:23 24.63801 102.93454 28989 ft 400 kts 287°
2026-04-22 09:23 24.64772 102.90577 28549 ft 397 kts 287°
2026-04-22 09:23 24.65732 102.87740 28103 ft 394 kts 287°
2026-04-22 09:24 24.66676 102.84943 27673 ft 390 kts 287°
2026-04-22 09:24 24.67719 102.82172 27251 ft 388 kts 291°
2026-04-22 09:24 24.68916 102.79531 26824 ft 387 kts 294°
2026-04-22 09:24 24.70290 102.76955 26387 ft 386 kts 297°
2026-04-22 09:25 24.71769 102.74496 25949 ft 384 kts 298°
2026-04-22 09:25 24.73241 102.72080 25538 ft 381 kts 299°
2026-04-22 09:25 24.74721 102.69665 25123 ft 378 kts 299°
2026-04-22 09:25 24.76196 102.67261 24709 ft 374 kts 299°
2026-04-22 09:26 24.77657 102.64881 24293 ft 372 kts 299°
2026-04-22 09:26 24.79086 102.62552 23880 ft 369 kts 299°
2026-04-22 09:26 24.80519 102.60214 23460 ft 366 kts 299°
2026-04-22 09:26 24.81938 102.57901 23052 ft 363 kts 299°
2026-04-22 09:27 24.83346 102.55605 22655 ft 360 kts 299°
2026-04-22 09:27 24.84939 102.53418 22250 ft 365 kts 312°
2026-04-22 09:27 24.87076 102.51861 21875 ft 376 kts 328°
2026-04-22 09:27 24.89672 102.51036 21455 ft 391 kts 346°
2026-04-22 09:28 24.92434 102.51131 21078 ft 405 kts
2026-04-22 09:28 24.95133 102.52225 20708 ft 418 kts 25°
2026-04-22 09:28 24.97393 102.54268 20311 ft 429 kts 46°
2026-04-22 09:28 24.98932 102.57089 19910 ft 435 kts 66°
2026-04-22 09:29 24.99949 102.60236 19514 ft 432 kts 65°
2026-04-22 09:29 25.01461 102.63087 19088 ft 424 kts 46°
2026-04-22 09:29 25.03663 102.65218 18704 ft 412 kts 32°
2026-04-22 09:29 25.06012 102.67068 18322 ft 410 kts 31°
2026-04-22 09:30 25.08335 102.68860 17934 ft 407 kts 31°
2026-04-22 09:30 25.10685 102.70660 17544 ft 405 kts 31°
2026-04-22 09:30 25.13005 102.72437 17151 ft 402 kts 31°
2026-04-22 09:30 25.15287 102.74187 16761 ft 400 kts 31°
2026-04-22 09:31 25.17569 102.75936 16363 ft 399 kts 31°
2026-04-22 09:31 25.19846 102.77683 15975 ft 396 kts 31°
2026-04-22 09:31 25.22117 102.79428 15744 ft 389 kts 31°
2026-04-22 09:31 25.24310 102.81117 15666 ft 376 kts 31°
2026-04-22 09:32 25.26425 102.82746 15554 ft 366 kts 31°
2026-04-22 09:32 25.28501 102.84347 15500 ft 353 kts 31°
2026-04-22 09:32 25.30489 102.85879 15449 ft 342 kts 31°
2026-04-22 09:32 25.32443 102.87384 15399 ft 330 kts 31°
2026-04-22 09:33 25.34311 102.88822 15340 ft 320 kts 31°
2026-04-22 09:33 25.36127 102.90221 15322 ft 307 kts 30°
2026-04-22 09:33 25.37857 102.91557 15299 ft 294 kts 31°
2026-04-22 09:33 25.38439 102.92004 15290 ft 290 kts 30°
2026-04-22 09:34 25.39991 102.93352 15262 ft 282 kts 42°
2026-04-22 09:34 25.41219 102.95074 15115 ft 283 kts 55°
2026-04-22 09:34 25.42253 102.96952 14859 ft 283 kts 58°
2026-04-22 09:35 25.44238 103.00746 14381 ft 280 kts 57°
2026-04-22 09:35 25.45226 103.02595 14148 ft 278 kts 57°
2026-04-22 09:35 25.46219 103.04429 13915 ft 276 kts 57°
2026-04-22 09:35 25.47208 103.06250 13684 ft 274 kts 57°
2026-04-22 09:36 25.48158 103.08080 13444 ft 274 kts 68°
2026-04-22 09:36 25.48402 103.10154 13170 ft 269 kts 107°
2026-04-22 09:36 25.47586 103.11938 12959 ft 256 kts 135°
2026-04-22 09:36 25.46414 103.13427 12781 ft 256 kts 137°
2026-04-22 09:37 25.45240 103.14908 12546 ft 256 kts 136°
2026-04-22 09:37 25.44088 103.16421 12329 ft 251 kts 135°
2026-04-22 09:37 25.42841 103.17700 12053 ft 238 kts 159°
2026-04-22 09:37 25.41291 103.18084 11800 ft 222 kts 191°
2026-04-22 09:38 25.39866 103.17587 11565 ft 211 kts 218°
2026-04-22 09:38 25.38698 103.16608 11365 ft 208 kts 223°
2026-04-22 09:38 25.37568 103.15604 11154 ft 208 kts 223°
2026-04-22 09:38 25.36434 103.14599 11001 ft 206 kts 223°
2026-04-22 09:39 25.35299 103.13602 10985 ft 206 kts 223°
2026-04-22 09:39 25.34189 103.12631 10970 ft 197 kts 223°
2026-04-22 09:39 25.33116 103.11695 10977 ft 195 kts 223°
2026-04-22 09:39 25.32047 103.10740 10980 ft 195 kts 223°
2026-04-22 09:40 25.30998 103.09798 10971 ft 194 kts 223°
2026-04-22 09:40 25.29938 103.08854 10805 ft 195 kts 223°
2026-04-22 09:40 25.28871 103.07916 10566 ft 194 kts 223°
2026-04-22 09:40 25.27814 103.06993 10331 ft 193 kts 223°
2026-04-22 09:41 25.26753 103.06071 10092 ft 187 kts 223°
2026-04-22 09:41 25.25745 103.05198 9859 ft 178 kts 223°
2026-04-22 09:41 25.24788 103.04369 9638 ft 170 kts 223°
2026-04-22 09:41 25.23878 103.03579 9430 ft 162 kts 223°
2026-04-22 09:42 25.23019 103.02834 9232 ft 153 kts 223°
2026-04-22 09:42 25.22198 103.02120 9049 ft 144 kts 223°
2026-04-22 09:42 25.21420 103.01444 8885 ft 143 kts 224°
2026-04-22 09:42 25.20639 103.00761 8725 ft 144 kts 223°
2026-04-22 09:43 25.19849 103.00074 8562 ft 145 kts 223°
2026-04-22 09:43 25.19047 102.99377 8393 ft 145 kts 223°
2026-04-22 09:43 25.18251 102.98686 8215 ft 145 kts 223°
2026-04-22 09:43 25.17456 102.97995 8032 ft 146 kts 223°
2026-04-22 09:44 25.16656 102.97300 7847 ft 145 kts 223°
2026-04-22 09:44 25.15869 102.96616 7672 ft 146 kts 224°
2026-04-22 09:44 25.15070 102.95920 7501 ft 146 kts 223°
2026-04-22 09:44 25.14252 102.95223 7301 ft 146 kts 223°
2026-04-22 09:45 25.13451 102.94527 7174 ft 147 kts 223°
2026-04-22 09:45 25.12649 102.93818 6971 ft 147 kts 222°
2026-04-22 09:45 25.11888 102.93135 6925 ft 122 kts 219°
2026-04-22 09:45 25.11399 102.92718 6925 ft 58 kts 219°
2026-04-22 09:46 25.11177 102.92523 6925 ft 28 kts 217°
2026-04-22 09:46 25.11064 102.92441 6925 ft 17 kts 205°
2026-04-22 09:46 25.10952 102.92400 6925 ft 16 kts 195°
2026-04-22 09:46 25.10843 102.92372 6925 ft 15 kts 192°
2026-04-22 09:47 25.10742 102.92348 6925 ft 14 kts 192°
2026-04-22 09:47 25.10650 102.92310 6925 ft 13 kts 218°
2026-04-22 09:47 25.10577 102.92245 6925 ft 13 kts 220°
2026-04-22 09:47 25.10505 102.92180 6925 ft 12 kts 214°
2026-04-22 09:48 25.10431 102.92123 6925 ft 12 kts 216°
2026-04-22 09:48 25.10363 102.92062 6925 ft 12 kts 221°
2026-04-22 09:48 25.10294 102.92012 6925 ft 11 kts 181°
2026-04-22 09:48 25.10246 102.92063 6925 ft 10 kts 99°
2026-04-22 09:49 25.10225 102.92142 6925 ft 10 kts 123°
2026-04-22 09:49 25.10188 102.92173 6925 ft 5 kts 186°
2026-04-22 09:49 25.10154 102.92145 6925 ft 6 kts 219°
2026-04-22 09:49 25.10124 102.92119 6925 ft 2 kts 218°